Location: ???? ?????????
(31.1304°N, 31.7111°E)
Time: 13:23:18
(UTC+00:00)

Daily predictions for brighter satellites

Satellite Brightness Start Highest point End
(mag) Time Altitude Azimuth Time Altitude Azimuth Time Altitude Azimuth
Cosmos 1697 Rocket 3.1 15:22:17 10° S 15:27:27 40° ESE 15:32:40 10° NE
Cosmos 1300 3.3 15:27:38 10° SSW 15:31:23 61° W 15:35:09 10° N
Cosmos 1400 Rocket 2.8 15:28:14 10° S 15:32:20 76° E 15:36:25 10° N
H-2A R/B 4.4 15:29:35 10° NNW 15:32:56 25° WNW 15:36:16 10° SW
Radarsat Rocket 4.4 15:27:44 10° S 15:33:57 71° WSW 15:39:48 10° NNW
COSMO-SKYMED 1 2.9 15:30:47 10° NNE 15:34:57 45° E 15:39:06 10° S
Delta 2 Rocket 3.9 15:31:57 10° WNW 15:36:59 81° NNE 15:42:31 10° ESE
Delta 142 4.1 15:34:28 10° W 15:38:37 56° S 15:43:40 10° ESE
Helios 1A Rocket 4.3 15:35:56 10° ESE 15:38:42 18° ENE 15:41:29 10° NNE
Atlas Centaur 2 3.2 15:31:01 10° WSW 15:39:03 80° S 15:47:29 11° E
SAR-Lupe-4 3.5 15:35:46 10° NNE 15:39:21 73° ESE 15:42:54 10° S
NOAA 11 4.3 15:34:52 10° SSE 15:40:10 56° ENE 15:45:28 10° N
YAOGAN 1 4.3 15:38:08 10° E 15:40:13 13° ENE 15:42:18 10° NE
Cosmos 1825 Rocket 4.1 15:37:15 10° NNW 15:41:38 65° W 15:45:58 10° S
Meteor 2-21 Rocket 4.5 15:36:26 10° N 15:42:36 87° E 15:48:41 10° S
CZ-4B R/B 2.6 15:41:24 10° N 15:44:23 42° WNW 15:47:17 10° SSW
Okean O Rocket 2.2 15:42:12 10° S 15:46:30 61° WSW 15:50:50 10° NNW
GPS 2-04 Rocket1 2.7 15:42:34 10° WSW 15:46:34 81° NNW 15:50:13 13° ENE
ERS-2 3.7 15:43:24 10° N 15:46:48 38° WNW 15:50:11 10° SW
CZ-2D R/B 4.3 15:44:32 10° SE 15:47:36 24° ENE 15:50:41 10° NNE
CORIOLIS 4.4 15:44:12 10° S 15:49:31 77° WSW 15:54:53 10° NNW
CZ-4 R/B 2.7 15:47:03 10° ESE 15:49:44 18° ENE 15:52:25 10° NNE
Aureole 3 3.4 15:47:01 10° SSW 15:50:20 59° W 15:53:17 10° N
Cosmos 1980 Rocket 2.9 15:46:09 10° SSE 15:51:05 32° ESE 15:55:59 10° NE
Cosmos 1992 Rocket 3.9 15:49:28 10° S 15:54:38 72° ESE 15:59:49 10° NNE
Cosmos 1340 2.7 15:52:34 10° N 15:56:18 56° E 15:59:59 10° SSE
SAR-Lupe-1 4.5 15:53:38 10° N 15:57:09 65° WNW 16:00:38 10° SSW
CZ-2C R/B 4.1 15:53:22 10° SE 15:58:11 28° ENE 16:02:56 10° NNE
Timation 2 Rocket 4.2 15:52:49 10° NNW 15:59:34 87° ENE 16:06:26 10° SSE
Cosmos 1553 Rocket 4.0 15:54:15 10° S 16:00:37 85° E 16:06:56 10° N
Cosmos 2297 Rocket 2.3 15:55:23 10° N 16:00:56 55° ENE 16:06:27 10° SE
In-Cosmos 22 Rocket 4.1 15:57:29 10° N 16:02:52 64° E 16:08:22 10° SSE
Cosmos 1346 Rocket 3.5 15:59:51 10° NNE 16:03:23 30° ENE 16:06:54 10° SE
ASTRO E2 2.6 15:59:27 10° W 16:03:25 85° N 16:05:54 22° E
Cosmos 2058 3.6 15:59:52 10° NNE 16:03:31 30° E 16:07:08 10° SE
Meteor 2-15 4.4 15:58:49 10° S 16:04:55 73° E 16:11:02 10° N
Cosmos 1315 Rocket 2.8 16:02:11 10° S 16:06:03 58° E 16:09:58 10° NNE
PSLV R/B 3.9 16:03:37 10° N 16:07:47 85° WNW 16:11:52 10° SSW
Meteor 2-10 Rocket 3.5 16:04:49 10° S 16:10:12 82° E 16:15:24 10° N
Cosmos 2360 4.2 16:08:15 10° SSW 16:13:58 84° ESE 16:19:43 10° NNE
Geosat 4.0 16:13:24 10° NNE 16:18:22 60° ESE 16:23:18 10° SSW
Cosmos 1455 2.0 16:14:58 10° S 16:18:43 85° E 16:22:31 10° N
H-2A R/B 2.9 16:15:54 16° ESE 16:19:08 29° ENE 16:23:44 10° NNE
Okean-O 2.6 16:19:15 10° SSE 16:23:35 57° ENE 16:27:56 10° N
Cosmos 2278 3.6 16:18:41 10° S 16:24:20 72° ESE 16:30:00 10° NNE
Milstar 3 2.8 16:25:27 10° W 16:32:32 71° S 16:36:12 29° ESE
MOS 1 Rocket 3.3 16:28:48 10° NNE 16:33:40 67° E 16:38:47 10° S
ARGOS 4.3 16:35:50 24° NE 16:35:50 24° NE 16:38:43 10° NNE
Cosmos 2219 3.5 16:28:41 10° NNW 16:34:24 68° WSW 16:40:04 10° S
Cosmos 1745 Rocket 3.9 16:29:29 10° N 16:35:51 80° E 16:42:11 10° S
Cosmos 44 Rocket 4.1 16:32:00 10° SW 16:36:32 48° WNW 16:41:12 10° NNE
ATLAS 2AS CENTAUR R/B 4.4 16:35:34 10° N 16:38:50 15° NE 16:38:50 15° NE
Cosmos 2082 3.8 16:36:09 10° N 16:41:46 53° ENE 16:43:52 35° ESE
Cosmos 1386 Rocket 4.4 16:38:23 10° N 16:44:47 89° E 16:51:03 10° S
Cosmos 967 Rocket 4.4 16:41:37 10° SSW 16:48:01 79° ESE 16:51:58 25° NNE
Cosmos 968 Rocket 3.7 16:43:43 10° NNW 16:48:53 69° WSW 16:53:58 10° S
Cosmos 1408 3.0 16:45:17 10° NNW 16:48:54 62° W 16:52:32 10° S
CSL-04 Rocket 3.6 16:52:34 31° SE 16:55:15 64° ENE 17:00:43 10° N
Cosmos 1076 Rocket 3.7 16:56:41 10° NNW 17:00:54 68° W 17:05:07 10° S
SL-16 R/B 4.0 16:56:12 10° SSE 16:57:27 16° SSE 16:57:27 16° SSE
OAO 3 Rocket 4.4 16:57:48 10° W 17:02:05 33° SSW 17:03:13 29° S
Cosmos 2227 Rocket 3.2 16:59:58 10° NNW 17:05:20 46° WSW 17:10:43 10° S
Cosmos 1709 Rocket 3.9 16:58:59 10° N 17:05:22 76° E 17:11:44 10° S
Cosmos 2263 Rocket 4.5 17:03:24 10° N 17:03:25 10° N 17:03:25 10° N
Cosmos-2242 4.4 17:06:54 10° SSW 17:09:03 29° SSW 17:09:03 29° SSW
OAO 2 Rocket 3.7 17:06:53 10° WNW 17:11:10 53° NNW 17:11:10 53° NNW
SEDSat Delta rocket 4.3 17:06:12 10° SW 17:12:35 49° SSE 17:12:35 49° SSE
OAO 3 Copernicus 4.4 17:07:48 10° W 17:12:23 70° WNW 17:12:23 70° WNW
YAOGAN 1 3.8 17:11:52 10° S 17:15:55 40° W 17:19:59 10° NNW
Cosmos 2315 Rocket 4.4 17:15:06 10° SSW 17:21:11 60° W 17:27:19 10° N
CZ-4 R/B 3.7 17:21:30 10° SSW 17:24:34 22° W 17:27:38 10° NW
Atlas Centaur 2 2.9 17:20:37 10° W 17:29:08 84° S 17:30:04 73° ESE
Cosmos 1980 Rocket 4.0 17:30:17 10° WSW 17:35:00 27° WNW 17:39:22 11° N
H-2A R/B 3.9 17:56:31 23° SW 17:58:23 29° W 18:03:04 10° NW
